Location: *
(46.1866°S, 178.5290°W)
Time: 03:23:26
(UTC+00:00)

Cosmos 2098 Rocket - Pass Details

Date: 19 May 2021
Orbit: 366 x 1178 km, 82.9° (Epoch: 12 June)

Event Time Altitude Azimuth Distance (km) Brightness Sun altitude
Rises 05:40:13 0° 332° (NNW) 2,328 6.7 -12.4°
Reaches altitude 10° 05:42:24 10° 320° (NW) 1,424 5.8 -12.8°
Maximum altitude 05:45:05 29° 257° (WSW) 733 4.2 -13.2°
Drops below altitude 10° 05:47:45 10° 193° (SSW) 1,409 4.9 -13.7°
Sets 05:49:55 0° 181° (S) 2,298 5.9 -14.0°
